BAW492 EGLL-LXGB

Flight info

Callsign BAW492
Flight time N/A
Altitude 35000
Route GASGU2J GASGU N866 SAM M195 MARUK N621 LELNA DCT ERCOZ DCT NOVAN DCT DELOG DCT CRISA DCT VULPE DCT MAR N864 PIMOS DCT
Aircraft A320/M-SDE3FGHIRWY/LB1

Departure

Time N/A
Airport London Heathrow Airport (EGLL)

Arrival

Time 2026-04-27 21:02
Airport Gibraltar Airport (LXGB)
Time Latitude Longitude Altitude Speed Heading
2026-04-27 20:41 37.50724 -4.84968 30497 ft 421 kts 189°
2026-04-27 20:41 37.47814 -4.85553 29923 ft 418 kts 189°
2026-04-27 20:41 37.44991 -4.86119 29342 ft 414 kts 189°
2026-04-27 20:41 37.42158 -4.86687 28769 ft 410 kts 189°
2026-04-27 20:42 37.39359 -4.87247 28216 ft 405 kts 189°
2026-04-27 20:42 37.36587 -4.87802 27678 ft 401 kts 189°
2026-04-27 20:42 37.33848 -4.88350 27143 ft 397 kts 189°
2026-04-27 20:42 37.31129 -4.88893 26618 ft 393 kts 189°
2026-04-27 20:43 37.28435 -4.89431 26109 ft 389 kts 189°
2026-04-27 20:43 37.25775 -4.89962 25600 ft 386 kts 189°
2026-04-27 20:43 37.23126 -4.90489 25110 ft 382 kts 189°
2026-04-27 20:43 37.20512 -4.91010 24619 ft 379 kts 189°
2026-04-27 20:44 37.17916 -4.91527 24104 ft 376 kts 189°
2026-04-27 20:44 37.15329 -4.92041 23611 ft 374 kts 189°
2026-04-27 20:44 37.12772 -4.92549 23070 ft 370 kts 189°
2026-04-27 20:44 37.10222 -4.93054 22515 ft 367 kts 189°
2026-04-27 20:45 37.07707 -4.93524 21998 ft 364 kts 187°
2026-04-27 20:45 37.05190 -4.93793 21451 ft 362 kts 184°
2026-04-27 20:45 37.02683 -4.93838 20954 ft 359 kts 180°
2026-04-27 20:45 37.00193 -4.93704 20439 ft 357 kts 179°
2026-04-27 20:46 36.97717 -4.93568 19937 ft 354 kts 179°
2026-04-27 20:46 36.95265 -4.93441 19453 ft 352 kts 179°
2026-04-27 20:46 36.92832 -4.93317 18961 ft 350 kts 179°
2026-04-27 20:46 36.90401 -4.93194 18482 ft 348 kts 179°
2026-04-27 20:47 36.87989 -4.93069 17977 ft 346 kts 179°
2026-04-27 20:47 36.85606 -4.92945 17489 ft 342 kts 179°
2026-04-27 20:47 36.83220 -4.92824 16953 ft 341 kts 179°
2026-04-27 20:47 36.80865 -4.92705 16481 ft 338 kts 179°
2026-04-27 20:48 36.78522 -4.92586 15988 ft 336 kts 179°
2026-04-27 20:48 36.76950 -4.92506 15664 ft 334 kts 179°
2026-04-27 20:48 36.73881 -4.92351 15065 ft 331 kts 179°
2026-04-27 20:48 36.71591 -4.92234 14625 ft 328 kts 179°
2026-04-27 20:49 36.69319 -4.92118 14171 ft 326 kts 179°
2026-04-27 20:49 36.67031 -4.92001 13708 ft 324 kts 179°
2026-04-27 20:49 36.64777 -4.91885 13155 ft 323 kts 179°
2026-04-27 20:49 36.62546 -4.91771 12719 ft 320 kts 179°
2026-04-27 20:50 36.60323 -4.91658 12199 ft 320 kts 179°
2026-04-27 20:50 36.58103 -4.91544 11670 ft 318 kts 179°
2026-04-27 20:50 36.55895 -4.91432 11229 ft 316 kts 179°
2026-04-27 20:50 36.53727 -4.91322 10757 ft 315 kts 179°
2026-04-27 20:51 36.51544 -4.91212 10306 ft 314 kts 178°
2026-04-27 20:51 36.49383 -4.91103 10040 ft 306 kts 178°
2026-04-27 20:51 36.47298 -4.90996 9935 ft 293 kts 178°
2026-04-27 20:51 36.45290 -4.90893 9679 ft 285 kts 178°
2026-04-27 20:52 36.43316 -4.90793 9295 ft 283 kts 178°
2026-04-27 20:52 36.41353 -4.90694 8911 ft 281 kts 178°
2026-04-27 20:52 36.39406 -4.90595 8524 ft 279 kts 178°
2026-04-27 20:52 36.37467 -4.90497 8142 ft 277 kts 177°
2026-04-27 20:53 36.35569 -4.90401 7751 ft 276 kts 177°
2026-04-27 20:53 36.33664 -4.90305 7420 ft 273 kts 177°
2026-04-27 20:53 36.31771 -4.90209 7031 ft 272 kts 177°
2026-04-27 20:53 36.29888 -4.90114 6673 ft 270 kts 176°
2026-04-27 20:54 36.26142 -4.89927 5920 ft 267 kts 175°
2026-04-27 20:54 36.24289 -4.89837 5548 ft 266 kts 175°
2026-04-27 20:54 36.22447 -4.89750 5199 ft 264 kts 174°
2026-04-27 20:55 36.20629 -4.89664 4884 ft 260 kts 173°
2026-04-27 20:55 36.18830 -4.89586 4527 ft 259 kts 176°
2026-04-27 20:55 36.17054 -4.90130 4140 ft 271 kts 204°
2026-04-27 20:55 36.15645 -4.91741 4015 ft 286 kts 233°
2026-04-27 20:56 36.14978 -4.94031 4005 ft 281 kts 263°
2026-04-27 20:56 36.14933 -4.96373 3943 ft 270 kts 270°
2026-04-27 20:56 36.14988 -4.98660 3777 ft 263 kts 270°
2026-04-27 20:56 36.15047 -5.00915 3502 ft 262 kts 270°
2026-04-27 20:57 36.15083 -5.03173 3211 ft 262 kts 269°
2026-04-27 20:57 36.15099 -5.05413 3015 ft 257 kts 268°
2026-04-27 20:57 36.15104 -5.07622 2914 ft 253 kts 268°
2026-04-27 20:57 36.15106 -5.09764 2839 ft 244 kts 268°
2026-04-27 20:58 36.15106 -5.11819 2710 ft 234 kts 268°
2026-04-27 20:58 36.15106 -5.13823 2508 ft 231 kts 268°
2026-04-27 20:58 36.15106 -5.15817 2498 ft 235 kts 268°
2026-04-27 20:58 36.15109 -5.17778 2477 ft 221 kts 268°
2026-04-27 20:59 36.15109 -5.19617 2312 ft 211 kts 269°
2026-04-27 20:59 36.15109 -5.21445 1978 ft 211 kts 269°
2026-04-27 20:59 36.15107 -5.23226 1696 ft 203 kts 269°
2026-04-27 20:59 36.15108 -5.24366 1527 ft 196 kts 269°
2026-04-27 21:00 36.15106 -5.25992 1481 ft 186 kts 270°
2026-04-27 21:00 36.15104 -5.27598 1392 ft 186 kts 270°
2026-04-27 21:00 36.15132 -5.29164 1074 ft 176 kts 272°
2026-04-27 21:00 36.15198 -5.30630 769 ft 165 kts 275°
2026-04-27 21:01 36.15198 -5.32019 460 ft 159 kts 269°
2026-04-27 21:01 36.15148 -5.33354 201 ft 150 kts 271°
2026-04-27 21:01 36.15136 -5.34621 25 ft 140 kts 271°
2026-04-27 21:01 36.15104 -5.35578 20 ft 73 kts 269°
2026-04-27 21:02 36.15068 -5.35881 19 ft 10 kts 239°
2026-04-27 21:02 36.15077 -5.35947 20 ft 5 kts 318°
2026-04-27 21:02 36.15124 -5.35888 18 ft 17 kts 90°
2026-04-27 21:02 36.15092 -5.35739 20 ft 19 kts 78°
2026-04-27 21:03 36.15105 -5.35564 20 ft 22 kts 88°
2026-04-27 21:03 36.15105 -5.35370 22 ft 24 kts 90°
2026-04-27 21:03 36.15113 -5.35157 23 ft 26 kts 85°
2026-04-27 21:03 36.15128 -5.34926 25 ft 28 kts 87°
2026-04-27 21:04 36.15140 -5.34712 20 ft 8 kts 84°
2026-04-27 21:04 36.15145 -5.34682 21 ft 5 kts 70°
2026-04-27 21:04 36.15171 -5.34662 20 ft 7 kts
2026-04-27 21:04 36.15231 -5.34670 18 ft 9 kts 22°
2026-04-27 21:05 36.15248 -5.34604 17 ft 8 kts 102°
2026-04-27 21:05 36.15262 -5.34572 19 ft 4 kts 13°
2026-04-27 21:05 36.15305 -5.34578 17 ft 2 kts 359°
2026-04-27 21:05 36.15309 -5.34578 17 ft 0 kts 359°